This is the latest recevied weather packets stored in our database for station/object WX5HOT. If no packets are shown the sender has not sent any weather packets the latest 10 day(s).
| Time | Temp. | Humidity | Pressure | Rain* | Wind** | Luminosity | Snow |
|---|---|---|---|---|---|---|---|
| 1777248015 | 21.11° C | 96% | 1059.1 hPa | 0 mm | - | 19 W/m² | - |
| 1777247714 | 21.11° C | 96% | 1059.1 hPa | 0 mm | - | 39 W/m² | - |
| 1777247412 | 21.11° C | 95% | 1059.1 hPa | 0 mm | - | 29 W/m² | - |
| 1777247109 | 21.67° C | 95% | 1059.2 hPa | 0 mm | - | 69 W/m² | - |
| 1777246805 | 21.67° C | 94% | 1059.1 hPa | 0 mm | - | 38 W/m² | - |
| 1777246501 | 21.67° C | 94% | 1059.2 hPa | 0 mm | - | 52 W/m² | - |
| 1777246198 | 21.67° C | 94% | 1059.1 hPa | 0 mm | - | 157 W/m² | - |
| 1777245896 | 21.67° C | 93% | 1059.3 hPa | 0 mm | - | 89 W/m² | - |
| 1777245594 | 21.67° C | 93% | 1059 hPa | 0 mm | - | 73 W/m² | - |
| 1777245290 | 22.22° C | 92% | 1059.2 hPa | 0 mm | - | 96 W/m² | - |
| 1777244986 | 22.22° C | 91% | 1059.3 hPa | 0 mm | - | 126 W/m² | - |
| 1777244682 | 22.22° C | 91% | 1059.3 hPa | 0 mm | - | 133 W/m² | - |
| 1777244378 | 22.22° C | 91% | 1059.2 hPa | 0 mm | - | 193 W/m² | - |
| 1777244075 | 22.22° C | 90% | 1059.1 hPa | 0 mm | - | 82 W/m² | - |
| 1777243773 | 22.22° C | 91% | 1059.5 hPa | 0 mm | - | 165 W/m² | - |
| 1777243470 | 22.22° C | 89% | 1059.4 hPa | 0 mm | - | 114 W/m² | - |
| 1777243166 | 22.78° C | 89% | 1059.4 hPa | 0 mm | - | 123 W/m² | - |
| 1777242862 | 22.22° C | 89% | 1059.4 hPa | 0 mm | - | 194 W/m² | - |
| 1777242560 | 22.22° C | 89% | 1059.2 hPa | 0 mm | - | 327 W/m² | - |
| 1777242255 | 22.78° C | 88% | 1059.4 hPa | 0 mm | - | 155 W/m² | - |
| 1777241953 | 22.78° C | 87% | 1059.3 hPa | 0 mm | - | 135 W/m² | - |
| 1777241650 | 22.78° C | 86% | 1059.5 hPa | 0 mm | - | 221 W/m² | - |
| 1777241347 | 23.33° C | 86% | 1059.4 hPa | 0 mm | - | 253 W/m² | - |
| 1777241044 | 22.78° C | 87% | 1059.5 hPa | 0 mm | - | 410 W/m² | - |
| 1777240741 | 22.78° C | 88% | 1059.5 hPa | 0 mm | - | 409 W/m² | - |
* Rain latest hour (hover to see other rain measurements)
** Current wind speed in m/s (hover to see current wind gust speed)